Wind_Speed
34 34 34 33 35 35 35 35 35 35 35 34 34 34 33 32 31 31 30 30 30 30 30 29 29 29 29 29 29 28 28 29 29 29 29 29 30 30
32 31 32 32 34 35 35 35 35 35 34 35 35 33 33 33 33 32 30 29 29 30 30 30 29 29 29 30 29 29 29 29 29 30 30 30 30 30
29 29 30 32 32 34 35 35 35 35 34 34 34 34 33 32 32 31 30 29 30 29 29 29 29 29 29 29 30 30 30 30 30 30 30 30 30 30
27 27 27 29 30 31 32 32 33 33 32 32 31 31 31 30 30 30 28 27 27 28 28 28 28 29 29 30 30 30 30 30 30 30 29 29 30 30
25 25 26 26 27 28 29 30 29 29 29 30 29 28 29 29 29 29 29 28 26 26 27 27 27 27 27 29 29 29 28 29 28 28 29 29 29 29
20 20 21 22 24 24 24 25 26 27 27 28 28 27 27 27 27 27 27 27 27 27 26 27 27 27 27 27 28 28 28 28 28 28 28 29 29 29
17 18 18 19 21 22 23 24 24 25 26 26 26 26 25 26 26 25 26 26 26 26 25 25 25 25 25 25 26 26 26 26 27 28 27 27 27 26
14 15 15 16 17 19 21 22 22 23 25 25 25 25 25 25 25 25 25 25 24 23 23 23 23 23 23 24 24 24 24 24 24 23 23 23 24 24
10 11 12 13 14 15 16 18 20 21 22 23 23 24 23 24 24 24 24 23 23 23 23 23 22 22 21 21 22 22 21 21 21 20 20 20 21 21
6 7 8 9 11 12 14 15 16 18 19 20 21 21 22 22 22 22 22 22 22 21 21 21 21 21 21 20 19 19 18 18 17 18 18 19 19 19
3 5 6 7 8 9 11 13 14 14 16 17 18 18 19 19 19 19 19 20 20 20 19 19 19 18 17 16 15 15 15 15 15 16 17 17 17 17
2 2 3 4 5 7 8 10 11 12 13 15 16 16 16 17 17 17 17 17 16 16 15 14 14 14 13 13 13 13 14 14 14 14 15 15 15 15
4 3 3 3 3 5 6 6 7 8 10 12 13 14 14 15 15 15 14 13 13 12 12 12 12 12 12 11 11 10 11 12 12 12 13 13 13 14
7 6 5 4 4 4 5 5 6 7 8 9 11 11 11 11 11 12 12 11 11 11 11 11 10 10 10 10 9 9 10 10 10 11 11 11 12 13
9 7 6 6 5 5 5 6 7 7 7 8 9 10 10 10 10 10 10 10 10 10 10 9 9 9 9 9 9 8 8 9 9 9 10 11 11 11
9 9 8 7 7 7 6 6 7 7 7 7 7 8 8 9 9 9 9 9 9 8 8 8 8 8 7 8 8 8 8 8 8 8 9 9 9 9
11 10 9 9 8 8 7 6 6 6 6 7 7 7 7 7 7 7 8 8 7 7 7 7 7 7 7 7 7 7 7 7 7 8 8 8 8 8
12 11 11 10 10 9 9 8 8 7 7 6 6 6 6 6 6 6 6 6 6 7 7 7 6 6 7 7 6 6 6 6 6 7 7 7 7 8
12 12 11 11 10 9 9 8 8 8 7 6 6 6 6 5 5 5 5 5 5 5 5 6 6 6 6 6 6 6 6 6 7 7 7 7 7 8
11 10 10 10 10 9 8 8 7 7 6 6 6 5 4 4 3 3 3 4 4 4 5 5 5 6 6 6 6 6 6 6 6 6 7 7 7 8
9 9 9 8 8 7 7 6 6 6 5 5 4 4 3 2 2 2 2 2 3 3 4 4 4 5 5 5 6 6 6 6 6 6 7 7 7 8
7 7 7 6 6 5 5 5 5 4 3 3 2 2 1 1 1 1 2 2 3 3 4 4 4 4 5 5 6 6 6 6 7 7 7 8 8 9
5 5 4 4 4 3 3 3 3 2 2 1 0 0 1 1 2 2 3 3 3 4 4 5 5 5 5 5 6 6 7 7 8 8 9 9 10 10
Wind_Direction
236 237 239 239 240 239 239 239 239 240 241 242 244 243 245 245 245 249 251 254 256 257 258 260 262 263 265 267 268 269 271 273 275 277 280 281 282 283
237 238 238 239 240 239 238 238 239 239 241 242 243 245 246 248 248 249 250 252 256 258 259 261 262 263 265 266 267 269 271 272 274 277 280 282 282 282
236 237 238 238 239 238 238 238 238 238 240 241 241 243 246 249 248 250 251 252 256 258 258 260 262 264 264 265 267 268 270 271 273 277 279 281 282 281
233 235 235 237 238 237 237 237 237 237 239 240 241 244 246 247 248 247 249 251 254 255 256 258 260 261 263 264 266 268 269 271 274 276 278 280 281 282
232 235 235 237 236 236 238 238 236 237 239 239 240 241 244 244 245 246 249 251 251 254 256 258 259 261 263 262 264 266 267 270 272 274 277 279 279 280
231 233 234 236 237 237 237 237 235 235 237 238 238 239 241 242 244 247 248 249 251 252 255 256 258 260 262 263 263 264 266 268 270 273 275 276 278 280
230 232 234 235 237 238 236 234 232 233 236 238 237 237 240 243 242 244 246 248 249 250 254 255 255 258 260 260 261 263 265 266 268 270 272 275 277 280
230 233 233 234 236 238 237 234 234 235 236 237 236 235 238 239 240 243 245 247 249 249 251 253 257 256 258 261 262 262 265 267 268 270 272 275 279 282
234 234 232 232 233 236 236 235 235 235 234 232 230 232 234 237 240 244 244 245 246 248 251 253 253 254 256 260 263 264 265 267 270 272 277 280 282 284
225 227 225 224 227 230 230 231 233 232 229 226 226 228 231 234 237 242 243 243 244 247 248 251 254 254 255 258 261 262 264 268 271 275 279 281 283 285
213 212 213 215 218 221 221 224 229 230 227 225 225 226 228 230 233 236 237 237 240 244 247 249 250 250 252 254 256 261 266 269 273 276 279 281 283 286
107 154 176 197 207 212 215 216 221 225 224 222 221 220 223 226 229 230 232 234 237 239 240 242 244 245 248 251 254 260 266 271 275 277 280 283 286 289
78 95 117 141 161 179 189 197 205 207 208 210 210 212 214 218 219 221 224 226 228 230 232 235 240 244 250 254 257 263 268 272 274 277 282 285 287 289
75 85 97 110 126 140 154 164 170 175 181 188 193 198 200 203 208 211 214 215 219 224 230 235 238 244 251 256 259 263 267 270 271 276 283 287 289 292
72 81 90 99 111 115 123 141 151 154 159 167 175 182 189 196 200 200 202 208 216 224 232 237 241 244 249 254 256 263 268 272 275 278 281 287 294 298
69 73 79 87 96 105 113 124 138 144 151 159 166 177 186 193 198 202 207 210 214 219 228 232 234 240 248 253 258 263 269 276 280 283 288 295 303 307
65 69 75 84 91 99 104 109 118 132 145 155 162 168 178 185 192 198 205 210 213 219 228 232 236 241 247 252 258 264 270 273 279 287 294 299 306 310
66 69 74 81 89 96 101 101 106 115 126 141 158 166 166 170 182 192 201 208 215 223 227 230 234 239 243 249 257 265 271 275 280 288 294 300 304 309
67 71 75 79 87 96 101 102 102 105 113 121 129 138 147 156 168 180 193 201 208 214 219 225 231 237 243 250 256 263 270 275 281 284 291 298 305 309
64 69 73 78 83 91 96 101 104 107 109 113 119 122 127 136 150 167 185 197 205 212 218 226 236 242 246 251 254 259 268 276 282 286 290 297 303 307
58 62 67 73 79 86 90 93 97 102 105 109 115 120 125 132 148 172 192 205 209 214 220 231 239 244 247 254 260 264 269 275 280 285 291 297 301 305
51 55 59 65 72 81 87 90 92 96 99 100 108 121 141 172 203 228 241 239 228 227 232 240 244 248 254 257 261 266 270 273 278 285 292 296 300 303
30 36 42 49 57 67 75 78 76 78 81 77 78 235 250 254 255 257 262 260 251 246 244 247 250 256 259 259 263 268 272 275 280 286 290 293 296 299
Height
5794 5798 5801 5805 5808 5812 5816 5819 5822 5825 5828 5831 5834 5836 5839 5841 5842 5844 5846 5847 5849 5850 5851 5852 5853 5854 5854 5855 5855 5855 5855 5855 5855 5855 5854 5853 5852 5851
5786 5790 5793 5797 5800 5803 5807 5810 5813 5817 5820 5823 5826 5828 5831 5833 5835 5836 5838 5839 5841 5843 5844 5845 5846 5847 5847 5848 5848 5848 5848 5848 5848 5848 5847 5846 5845 5844
5780 5783 5786 5789 5792 5795 5798 5801 5804 5808 5812 5814 5817 5820 5823 5825 5827 5829 5830 5832 5834 5835 5836 5837 5838 5839 5840 5840 5841 5841 5841 5841 5841 5840 5840 5839 5838 5836
5773 5776 5779 5782 5785 5787 5790 5793 5796 5800 5803 5806 5809 5812 5815 5817 5819 5821 5823 5825 5826 5828 5829 5830 5831 5832 5832 5833 5833 5833 5833 5833 5833 5832 5832 5831 5830 5829
5767 5770 5772 5775 5777 5780 5783 5786 5789 5792 5795 5798 5801 5804 5807 5809 5812 5814 5816 5818 5819 5820 5822 5823 5824 5824 5825 5825 5825 5825 5825 5826 5825 5825 5825 5824 5823 5822
5761 5763 5766 5768 5771 5773 5776 5779 5782 5785 5788 5791 5794 5797 5800 5802 5804 5807 5809 5811 5812 5814 5815 5816 5817 5817 5818 5818 5818 5818 5818 5818 5818 5818 5818 5817 5816 5815
5756 5758 5761 5763 5765 5767 5769 5772 5775 5778 5781 5784 5787 5790 5793 5795 5798 5800 5802 5804 5805 5807 5808 5809 5810 5811 5811 5811 5811 5811 5812 5812 5812 5811 5811 5810 5809 5808
5753 5754 5756 5758 5759 5761 5763 5766 5769 5772 5775 5778 5781 5784 5787 5789 5792 5794 5796 5798 5799 5800 5802 5803 5804 5804 5805 5805 5805 5805 5805 5805 5805 5805 5804 5803 5802 5801
5750 5751 5752 5753 5755 5757 5759 5761 5763 5766 5769 5772 5775 5777 5780 5783 5786 5788 5790 5792 5793 5795 5796 5797 5798 5798 5799 5799 5799 5799 5799 5799 5799 5799 5798 5797 5796 5795
5747 5748 5749 5750 5751 5753 5755 5757 5759 5761 5764 5766 5769 5772 5775 5777 5780 5782 5784 5786 5787 5789 5790 5791 5792 5793 5793 5794 5794 5794 5794 5794 5794 5794 5793 5792 5791 5790
5746 5746 5747 5748 5749 5750 5752 5753 5755 5757 5759 5762 5764 5767 5770 5772 5775 5777 5779 5781 5783 5784 5785 5787 5787 5788 5788 5789 5789 5790 5790 5790 5789 5789 5788 5787 5786 5785
5745 5746 5746 5747 5747 5748 5749 5751 5752 5754 5756 5758 5760 5763 5766 5768 5771 5773 5775 5777 5779 5780 5781 5782 5783 5784 5785 5785 5785 5786 5786 5786 5785 5785 5784 5783 5782 5781
5746 5746 5746 5746 5747 5748 5748 5749 5751 5752 5753 5755 5758 5760 5763 5765 5768 5770 5772 5774 5776 5777 5778 5779 5780 5781 5782 5782 5782 5782 5782 5782 5781 5781 5780 5779 5778 5777
5748 5747 5747 5748 5748 5748 5749 5750 5751 5752 5753 5755 5757 5759 5762 5764 5766 5768 5770 5771 5773 5775 5776 5777 5778 5778 5779 5779 5779 5779 5779 5778 5778 5778 5777 5776 5775 5773
5750 5750 5749 5749 5750 5750 5750 5751 5752 5753 5754 5755 5757 5759 5761 5763 5765 5766 5768 5770 5771 5772 5773 5774 5775 5776 5776 5777 5777 5776 5776 5776 5775 5775 5774 5773 5772 5770
5753 5753 5752 5751 5751 5752 5752 5752 5753 5754 5755 5756 5758 5759 5761 5762 5764 5766 5767 5768 5770 5770 5771 5772 5773 5774 5774 5774 5774 5774 5773 5773 5773 5772 5771 5770 5769 5768
5757 5756 5755 5754 5754 5754 5754 5755 5755 5756 5756 5758 5759 5760 5761 5762 5764 5765 5766 5767 5768 5769 5769 5770 5771 5771 5771 5772 5772 5771 5771 5771 5770 5770 5769 5768 5767 5765
5760 5759 5758 5757 5757 5757 5757 5757 5757 5758 5759 5759 5760 5761 5762 5763 5764 5764 5765 5766 5767 5767 5768 5768 5769 5769 5770 5770 5770 5769 5769 5769 5768 5768 5767 5766 5765 5764
5764 5763 5762 5761 5760 5760 5760 5760 5760 5760 5761 5761 5761 5762 5763 5763 5764 5764 5764 5765 5765 5766 5766 5767 5767 5767 5768 5768 5768 5768 5767 5767 5766 5765 5765 5764 5763 5762
5768 5767 5765 5765 5764 5763 5763 5763 5763 5763 5763 5763 5763 5763 5763 5764 5764 5764 5764 5764 5764 5765 5765 5765 5765 5766 5766 5766 5766 5766 5765 5765 5764 5763 5763 5762 5761 5759
5771 5770 5769 5768 5767 5766 5765 5765 5765 5765 5764 5764 5764 5764 5764 5764 5764 5764 5764 5764 5764 5764 5764 5764 5764 5764 5764 5764 5764 5764 5763 5763 5762 5761 5761 5760 5758 5757
5773 5772 5771 5770 5769 5768 5768 5767 5767 5766 5766 5765 5765 5765 5765 5764 5764 5764 5764 5763 5763 5763 5763 5763 5763 5763 5763 5762 5762 5762 5761 5761 5760 5759 5758 5757 5756 5755
5774 5773 5772 5771 5771 5770 5769 5768 5768 5767 5767 5766 5765 5765 5765 5764 5764 5763 5763 5762 5762 5762 5762 5762 5761 5761 5761 5760 5760 5760 5759 5758 5758 5757 5756 5754 5753 5752